AAL2017 KJFK-KMIA

Flight info

Callsign AAL2017
Flight time 2h 55m
Altitude 36000
Route WAVEY EMJAY Q167 KALDA Q101 SKARP Y313 HOAGG BNFSH3
Aircraft A321/M-SDE3FGHIRWY/LB1

Departure

Time 2026-05-04 00:01
Airport John F. Kennedy International Airport (KJFK)

Arrival

Time 2026-05-04 02:56
Airport Miami International Airport (KMIA)
Time Latitude Longitude Altitude Speed Heading
2026-05-03 23:21 40.64697 -73.77571 23 ft 0 kts 229°
2026-05-03 23:48 40.64703 -73.77561 23 ft 4 kts 229°
2026-05-03 23:48 40.64719 -73.77536 23 ft 2 kts 230°
2026-05-03 23:48 40.64734 -73.77520 23 ft 4 kts 166°
2026-05-03 23:49 40.64752 -73.77539 23 ft 4 kts 121°
2026-05-03 23:49 40.64765 -73.77569 23 ft 4 kts 121°
2026-05-03 23:49 40.64776 -73.77593 24 ft 4 kts 121°
2026-05-03 23:49 40.64779 -73.77600 23 ft 1 kts 121°
2026-05-03 23:53 40.64779 -73.77599 23 ft 0 kts 121°
2026-05-03 23:54 40.64769 -73.77576 24 ft 7 kts 121°
2026-05-03 23:54 40.64737 -73.77505 23 ft 10 kts 121°
2026-05-03 23:54 40.64713 -73.77420 24 ft 9 kts 70°
2026-05-03 23:54 40.64768 -73.77365 25 ft 10 kts 32°
2026-05-03 23:55 40.64762 -73.77283 23 ft 13 kts 116°
2026-05-03 23:55 40.64716 -73.77168 22 ft 15 kts 122°
2026-05-03 23:55 40.64631 -73.77092 22 ft 16 kts 169°
2026-05-03 23:55 40.64515 -73.77092 22 ft 17 kts 181°
2026-05-03 23:56 40.64427 -73.77056 24 ft 13 kts 117°
2026-05-03 23:56 40.64397 -73.76931 21 ft 15 kts 117°
2026-05-03 23:56 40.64304 -73.76884 22 ft 15 kts 181°
2026-05-03 23:56 40.64198 -73.76887 24 ft 16 kts 183°
2026-05-03 23:57 40.64091 -73.76900 24 ft 15 kts 185°
2026-05-03 23:57 40.63990 -73.76910 27 ft 14 kts 182°
2026-05-03 23:57 40.63890 -73.76912 27 ft 15 kts 180°
2026-05-03 23:57 40.63779 -73.76914 30 ft 17 kts 180°
2026-05-03 23:58 40.63657 -73.76916 26 ft 18 kts 181°
2026-05-03 23:58 40.63527 -73.76919 26 ft 20 kts 183°
2026-05-03 23:58 40.63383 -73.76941 21 ft 22 kts 186°
2026-05-03 23:58 40.63227 -73.76948 22 ft 22 kts 181°
2026-05-03 23:59 40.63090 -73.76978 21 ft 20 kts 204°
2026-05-03 23:59 40.62995 -73.77048 23 ft 14 kts 210°
2026-05-03 23:59 40.62921 -73.77106 25 ft 11 kts 211°
2026-05-03 23:59 40.62870 -73.77146 24 ft 9 kts 211°
2026-05-04 00:00 40.62814 -73.77189 26 ft 6 kts 211°
2026-05-04 00:00 40.62816 -73.77216 24 ft 3 kts 306°
2026-05-04 00:00 40.62823 -73.77230 24 ft 15 kts 304°
2026-05-04 00:00 40.63015 -73.77654 30 ft 90 kts 300°
2026-05-04 00:01 40.63446 -73.78609 28 ft 150 kts 300°
2026-05-04 00:01 40.64043 -73.79906 327 ft 171 kts 301°
2026-05-04 00:01 40.64546 -73.81310 1028 ft 171 kts 282°
2026-05-04 00:01 40.64401 -73.82897 1505 ft 186 kts 248°
2026-05-04 00:02 40.63476 -73.84235 1785 ft 210 kts 221°
2026-05-04 00:02 40.62309 -73.85447 2350 ft 217 kts 226°
2026-05-04 00:02 40.61215 -73.86771 3242 ft 212 kts 231°
2026-05-04 00:02 40.59987 -73.87892 4023 ft 224 kts 207°
2026-05-04 00:03 40.58374 -73.88149 4574 ft 252 kts 174°
2026-05-04 00:03 40.56624 -73.87319 4895 ft 281 kts 160°
2026-05-04 00:03 40.54785 -73.86263 5438 ft 293 kts 163°
2026-05-04 00:03 40.52818 -73.85562 6148 ft 293 kts 177°
2026-05-04 00:04 40.50788 -73.85148 6882 ft 300 kts 169°
2026-05-04 00:04 40.48828 -73.84115 7619 ft 309 kts 152°
2026-05-04 00:04 40.47104 -73.82392 8341 ft 315 kts 135°
2026-05-04 00:04 40.45737 -73.80124 9055 ft 319 kts 124°
2026-05-04 00:05 40.44453 -73.77729 9805 ft 322 kts 125°
2026-05-04 00:05 40.43151 -73.75323 10325 ft 334 kts 125°
2026-05-04 00:05 40.41753 -73.72752 10519 ft 357 kts 126°
2026-05-04 00:05 40.40283 -73.70067 10947 ft 369 kts 126°
2026-05-04 00:06 40.38791 -73.67349 11582 ft 374 kts 126°
2026-05-04 00:06 40.37264 -73.64569 12254 ft 377 kts 126°
2026-05-04 00:06 40.35722 -73.61762 12925 ft 381 kts 126°
2026-05-04 00:06 40.34170 -73.58928 13551 ft 385 kts 126°
2026-05-04 00:07 40.32599 -73.56064 14171 ft 389 kts 126°
2026-05-04 00:07 40.31011 -73.53171 14767 ft 393 kts 126°
2026-05-04 00:07 40.29408 -73.50253 15375 ft 397 kts 126°
2026-05-04 00:07 40.27789 -73.47309 15969 ft 400 kts 126°
2026-05-04 00:08 40.26153 -73.44334 16562 ft 404 kts 126°
2026-05-04 00:08 40.24478 -73.41360 17130 ft 408 kts 130°
2026-05-04 00:08 40.22511 -73.38679 17688 ft 410 kts 141°
2026-05-04 00:08 40.20239 -73.36415 18252 ft 412 kts 147°
2026-05-04 00:09 40.17898 -73.34238 18803 ft 415 kts 147°
2026-05-04 00:09 40.15475 -73.32167 19335 ft 416 kts 156°
2026-05-04 00:09 40.12795 -73.30827 19843 ft 412 kts 172°
2026-05-04 00:09 40.09978 -73.30378 20365 ft 405 kts 187°
2026-05-04 00:10 40.07209 -73.30808 20873 ft 398 kts 201°
2026-05-04 00:10 40.04642 -73.32030 21390 ft 390 kts 214°
2026-05-04 00:10 40.02389 -73.33922 21900 ft 382 kts 226°
2026-05-04 00:10 40.00367 -73.36177 22435 ft 383 kts 228°
2026-05-04 00:11 39.98343 -73.38449 22949 ft 385 kts 228°
2026-05-04 00:11 39.96313 -73.40725 23464 ft 386 kts 228°
2026-05-04 00:11 39.94273 -73.43007 23948 ft 388 kts 228°
2026-05-04 00:11 39.92220 -73.45298 24394 ft 389 kts 228°
2026-05-04 00:12 39.90153 -73.47601 24822 ft 392 kts 228°
2026-05-04 00:12 39.88083 -73.49911 25251 ft 394 kts 228°
2026-05-04 00:12 39.86022 -73.52203 25671 ft 395 kts 228°
2026-05-04 00:12 39.83925 -73.54529 26073 ft 397 kts 227°
2026-05-04 00:13 39.81820 -73.56867 26479 ft 399 kts 227°
2026-05-04 00:13 39.79706 -73.59224 26876 ft 401 kts 227°
2026-05-04 00:13 39.77586 -73.61585 27249 ft 402 kts 227°
2026-05-04 00:13 39.75453 -73.63956 27622 ft 404 kts 227°
2026-05-04 00:14 39.73314 -73.66335 27987 ft 406 kts 227°
2026-05-04 00:14 39.71166 -73.68722 28360 ft 407 kts 227°
2026-05-04 00:14 39.69012 -73.71114 28720 ft 408 kts 227°
2026-05-04 00:14 39.66847 -73.73513 29055 ft 410 kts 227°
2026-05-04 00:15 39.64671 -73.75920 29393 ft 411 kts 226°
2026-05-04 00:15 39.62491 -73.78330 29714 ft 413 kts 226°
2026-05-04 00:15 39.60303 -73.80748 30030 ft 414 kts 226°
2026-05-04 00:15 39.58105 -73.83176 30352 ft 415 kts 226°
2026-05-04 00:16 39.55909 -73.85603 30657 ft 417 kts 226°
2026-05-04 00:16 39.53696 -73.88041 30943 ft 418 kts 226°
2026-05-04 00:16 39.51471 -73.90485 31243 ft 420 kts 226°
2026-05-04 00:16 39.49245 -73.92924 31618 ft 419 kts 226°
2026-05-04 00:17 39.47026 -73.95353 32028 ft 417 kts 226°
2026-05-04 00:17 39.44817 -73.97768 32430 ft 415 kts 226°
2026-05-04 00:17 39.42621 -74.00173 32809 ft 413 kts 226°
2026-05-04 00:17 39.40435 -74.02575 33152 ft 412 kts 226°
2026-05-04 00:18 39.38254 -74.04971 33469 ft 411 kts 226°
2026-05-04 00:18 39.36074 -74.07363 33805 ft 411 kts 226°
2026-05-04 00:18 39.33896 -74.09745 34140 ft 409 kts 226°
2026-05-04 00:18 39.31721 -74.12116 34470 ft 409 kts 226°
2026-05-04 00:19 39.29551 -74.14478 34776 ft 408 kts 226°
2026-05-04 00:19 39.27384 -74.16834 35079 ft 407 kts 226°
2026-05-04 00:19 39.25215 -74.19189 35381 ft 406 kts 226°
2026-05-04 00:19 39.23057 -74.21535 35680 ft 406 kts 226°
2026-05-04 00:20 39.20905 -74.23875 35963 ft 405 kts 226°
2026-05-04 00:20 39.18747 -74.26220 36069 ft 403 kts 227°
2026-05-04 00:20 39.14505 -74.30816 36101 ft 395 kts 227°
2026-05-04 00:21 39.10313 -74.35362 36100 ft 393 kts 227°
2026-05-04 00:21 39.06155 -74.39856 36101 ft 392 kts 227°
2026-05-04 00:22 39.01983 -74.44357 36101 ft 391 kts 227°
2026-05-04 00:22 38.97820 -74.48855 36107 ft 391 kts 227°
2026-05-04 00:23 38.93658 -74.53339 36121 ft 390 kts 227°
2026-05-04 00:23 38.89622 -74.57958 36143 ft 388 kts 229°
2026-05-04 00:24 38.85674 -74.62675 36147 ft 387 kts 230°
2026-05-04 00:24 38.81723 -74.67351 36143 ft 387 kts 229°
2026-05-04 00:25 38.77747 -74.71992 36144 ft 387 kts 229°
2026-05-04 00:25 38.73738 -74.76593 36146 ft 387 kts 227°
2026-05-04 00:26 38.69571 -74.80986 36147 ft 388 kts 226°
2026-05-04 00:26 38.65318 -74.85326 36150 ft 388 kts 226°
2026-05-04 00:27 38.61116 -74.89649 36154 ft 388 kts 227°
2026-05-04 00:27 38.56963 -74.93956 36155 ft 386 kts 227°
2026-05-04 00:28 38.52787 -74.98284 36159 ft 386 kts 227°
2026-05-04 00:28 38.48726 -75.02708 36162 ft 383 kts 229°
2026-05-04 00:29 38.44680 -75.07146 36162 ft 385 kts 226°
2026-05-04 00:29 38.40391 -75.11278 36168 ft 388 kts 224°
2026-05-04 00:30 38.36723 -75.14646 36170 ft 387 kts 224°
2026-05-04 00:30 38.32382 -75.18689 36168 ft 386 kts 225°
2026-05-04 00:31 38.28069 -75.22774 36171 ft 386 kts 225°
2026-05-04 00:31 38.23772 -75.26849 36170 ft 385 kts 225°
2026-05-04 00:32 38.19468 -75.30912 36171 ft 385 kts 225°
2026-05-04 00:32 38.15166 -75.34977 36172 ft 385 kts 225°
2026-05-04 00:33 38.08712 -75.41060 36172 ft 385 kts 225°
2026-05-04 00:34 38.04400 -75.45091 36171 ft 385 kts 224°
2026-05-04 00:34 38.00025 -75.48960 36177 ft 386 kts 223°
2026-05-04 00:35 37.95602 -75.52763 36086 ft 379 kts 223°
2026-05-04 00:35 37.91291 -75.56466 36065 ft 368 kts 224°
2026-05-04 00:36 37.86968 -75.60117 36063 ft 385 kts 218°
2026-05-04 00:36 37.84444 -75.61485 36071 ft 406 kts 207°
2026-05-04 00:36 37.81588 -75.62185 36067 ft 430 kts 195°
2026-05-04 00:36 37.78524 -75.62106 36090 ft 450 kts 187°
2026-05-04 00:37 37.75374 -75.61771 36081 ft 456 kts 186°
2026-05-04 00:37 37.69000 -75.61227 36089 ft 455 kts 193°
2026-05-04 00:37 37.65921 -75.61584 36085 ft 433 kts 201°
2026-05-04 00:38 37.63007 -75.62195 36084 ft 418 kts 201°
2026-05-04 00:38 37.57342 -75.63409 36090 ft 410 kts 201°
2026-05-04 00:39 37.51734 -75.64651 36092 ft 409 kts 201°
2026-05-04 00:39 37.46133 -75.65882 36090 ft 409 kts 201°
2026-05-04 00:40 37.40529 -75.67089 36090 ft 408 kts 201°
2026-05-04 00:40 37.34938 -75.68284 36095 ft 407 kts 201°
2026-05-04 00:41 37.29348 -75.69480 36103 ft 408 kts 201°
2026-05-04 00:41 37.23775 -75.70681 36106 ft 402 kts 201°
2026-05-04 00:42 37.18258 -75.71860 36089 ft 403 kts 201°
2026-05-04 00:42 37.12725 -75.73041 36095 ft 403 kts 201°
2026-05-04 00:43 37.07222 -75.74290 36096 ft 397 kts 207°
2026-05-04 00:43 37.02260 -75.76954 36115 ft 384 kts 219°
2026-05-04 00:44 36.97595 -75.80213 36114 ft 383 kts 219°
2026-05-04 00:44 36.92952 -75.83423 36115 ft 380 kts 219°
2026-05-04 00:45 36.88334 -75.86607 36115 ft 378 kts 219°
2026-05-04 00:45 36.83741 -75.89789 36118 ft 377 kts 219°
2026-05-04 00:46 36.79167 -75.92953 36115 ft 376 kts 219°
2026-05-04 00:46 36.74602 -75.96097 36109 ft 375 kts 219°
2026-05-04 00:47 36.70041 -75.99235 36109 ft 373 kts 218°
2026-05-04 00:47 36.65496 -76.02359 36112 ft 373 kts 218°
2026-05-04 00:48 36.60948 -76.05488 36113 ft 374 kts 218°
2026-05-04 00:48 36.56389 -76.08617 36127 ft 374 kts 218°
2026-05-04 00:49 36.51837 -76.11739 36131 ft 373 kts 218°
2026-05-04 00:49 36.47288 -76.14855 36123 ft 373 kts 218°
2026-05-04 00:50 36.42738 -76.17963 36135 ft 373 kts 218°
2026-05-04 00:50 36.38196 -76.21057 36130 ft 373 kts 218°
2026-05-04 00:51 36.33649 -76.24149 36128 ft 372 kts 218°
2026-05-04 00:51 36.29113 -76.27242 36131 ft 372 kts 218°
2026-05-04 00:52 36.24582 -76.30322 36137 ft 371 kts 218°
2026-05-04 00:52 36.20051 -76.33397 36139 ft 371 kts 218°
2026-05-04 00:53 36.15527 -76.36474 36139 ft 371 kts 218°
2026-05-04 00:53 36.10996 -76.39547 36143 ft 372 kts 218°
2026-05-04 00:54 36.06481 -76.42588 36145 ft 372 kts 218°
2026-05-04 00:54 36.01913 -76.45664 36149 ft 371 kts 218°
2026-05-04 00:55 35.97383 -76.48721 36152 ft 371 kts 218°
2026-05-04 00:55 35.92892 -76.51748 36155 ft 370 kts 218°
2026-05-04 00:56 35.88372 -76.54768 36156 ft 370 kts 217°
2026-05-04 00:56 35.83781 -76.57637 36155 ft 371 kts 216°
2026-05-04 00:57 35.79156 -76.60443 36153 ft 370 kts 216°
2026-05-04 00:57 35.74542 -76.63257 36151 ft 370 kts 216°
2026-05-04 00:58 35.69936 -76.66085 36151 ft 369 kts 217°
2026-05-04 00:58 35.65343 -76.68914 36152 ft 369 kts 216°
2026-05-04 00:59 35.60750 -76.71733 36151 ft 369 kts 216°
2026-05-04 00:59 35.56157 -76.74550 36151 ft 369 kts 216°
2026-05-04 01:00 35.51570 -76.77368 36151 ft 369 kts 216°
2026-05-04 01:00 35.46984 -76.80176 36149 ft 368 kts 216°
2026-05-04 01:01 35.42397 -76.82983 36149 ft 368 kts 216°
2026-05-04 01:01 35.37815 -76.85770 36150 ft 368 kts 216°
2026-05-04 01:02 35.33235 -76.88568 36149 ft 368 kts 216°
2026-05-04 01:02 35.28647 -76.91355 36149 ft 368 kts 216°
2026-05-04 01:03 35.24067 -76.94137 36149 ft 367 kts 216°
2026-05-04 01:03 35.19515 -76.96965 36143 ft 366 kts 217°
2026-05-04 01:04 35.14998 -76.99822 36142 ft 366 kts 217°
2026-05-04 01:04 35.10474 -77.02678 36143 ft 365 kts 217°
2026-05-04 01:05 35.05953 -77.05500 36151 ft 365 kts 217°
2026-05-04 01:05 35.01432 -77.08314 36157 ft 364 kts 217°
2026-05-04 01:06 34.96919 -77.11127 36158 ft 364 kts 216°
2026-05-04 01:06 34.92411 -77.13931 36159 ft 363 kts 217°
2026-05-04 01:07 34.87906 -77.16722 36162 ft 363 kts 217°
2026-05-04 01:07 34.83404 -77.19518 36161 ft 363 kts 217°
2026-05-04 01:08 34.78910 -77.22325 36165 ft 362 kts 217°
2026-05-04 01:08 34.74427 -77.25115 36164 ft 362 kts 217°
2026-05-04 01:09 34.69942 -77.27897 36163 ft 362 kts 217°
2026-05-04 01:09 34.65456 -77.30662 36156 ft 361 kts 216°
2026-05-04 01:10 34.60985 -77.33420 36155 ft 360 kts 217°
2026-05-04 01:10 34.56528 -77.36168 36153 ft 359 kts 216°
2026-05-04 01:11 34.52067 -77.38911 36151 ft 359 kts 216°
2026-05-04 01:11 34.47401 -77.41259 36147 ft 375 kts 204°
2026-05-04 01:12 34.42192 -77.42318 36150 ft 381 kts 201°
2026-05-04 01:12 34.37840 -77.43159 36150 ft 381 kts 201°
2026-05-04 01:13 34.32611 -77.44180 36159 ft 380 kts 201°
2026-05-04 01:13 34.26543 -77.45368 36161 ft 380 kts 201°
2026-05-04 01:14 34.22174 -77.46220 36163 ft 379 kts 201°
2026-05-04 01:14 34.16968 -77.47232 36164 ft 378 kts 201°
2026-05-04 01:15 34.11767 -77.48243 36161 ft 378 kts 201°
2026-05-04 01:15 34.06572 -77.49250 36160 ft 378 kts 201°
2026-05-04 01:16 34.01373 -77.50258 36158 ft 379 kts 201°
2026-05-04 01:16 33.96213 -77.51264 36161 ft 378 kts 201°
2026-05-04 01:17 33.90995 -77.52274 36166 ft 378 kts 201°
2026-05-04 01:17 33.85846 -77.53271 36164 ft 377 kts 201°
2026-05-04 01:18 33.80667 -77.54273 36160 ft 377 kts 201°
2026-05-04 01:18 33.75492 -77.55267 36165 ft 377 kts 201°
2026-05-04 01:19 33.70320 -77.56265 36167 ft 376 kts 201°
2026-05-04 01:19 33.65151 -77.57262 36167 ft 376 kts 201°
2026-05-04 01:20 33.59983 -77.58249 36167 ft 376 kts 201°
2026-05-04 01:20 33.54991 -77.59691 36166 ft 365 kts 208°
2026-05-04 01:21 33.50115 -77.61415 36166 ft 366 kts 207°
2026-05-04 01:21 33.45231 -77.63127 36169 ft 366 kts 207°
2026-05-04 01:22 33.40350 -77.64828 36168 ft 365 kts 207°
2026-05-04 01:22 33.35473 -77.66528 36168 ft 365 kts 207°
2026-05-04 01:23 33.30600 -77.68233 36168 ft 365 kts 207°
2026-05-04 01:23 33.25727 -77.69935 36167 ft 365 kts 207°
2026-05-04 01:24 33.20851 -77.71626 36165 ft 365 kts 207°
2026-05-04 01:24 33.15975 -77.73319 36165 ft 365 kts 207°
2026-05-04 01:25 33.11108 -77.75009 36166 ft 364 kts 207°
2026-05-04 01:25 33.06239 -77.76700 36165 ft 364 kts 207°
2026-05-04 01:26 33.01375 -77.78385 36165 ft 364 kts 207°
2026-05-04 01:26 32.96504 -77.80072 36166 ft 364 kts 207°
2026-05-04 01:27 32.91932 -77.81651 36163 ft 365 kts 207°
2026-05-04 01:27 32.90520 -77.82138 36164 ft 365 kts 207°
2026-05-04 01:28 32.86794 -77.83803 33121 ft 407 kts 197°
2026-05-04 01:28 32.85858 -77.84014 32997 ft 403 kts 201°
2026-05-04 01:28 32.84886 -77.84231 33095 ft 397 kts 200°
2026-05-04 01:28 32.82113 -77.84478 33326 ft 391 kts 194°
2026-05-04 01:29 32.79473 -77.84781 34116 ft 370 kts 199°
2026-05-04 01:29 32.76993 -77.85424 34480 ft 361 kts 204°
2026-05-04 01:29 32.74620 -77.86338 34777 ft 357 kts 206°
2026-05-04 01:29 32.72303 -77.87349 35105 ft 353 kts 211°
2026-05-04 01:30 32.70042 -77.88424 35468 ft 348 kts 210°
2026-05-04 01:30 32.65465 -77.90575 35592 ft 359 kts 206°
2026-05-04 01:31 32.64265 -77.91093 35652 ft 361 kts 206°
2026-05-04 01:31 32.63617 -77.91379 35660 ft 361 kts 209°
2026-05-04 01:32 32.58793 -77.93229 35717 ft 366 kts 205°
2026-05-04 01:32 32.56313 -77.93954 35967 ft 368 kts 204°
2026-05-04 01:32 32.53814 -77.94656 36102 ft 368 kts 204°
2026-05-04 01:33 32.48873 -77.96110 36149 ft 364 kts 205°
2026-05-04 01:33 32.44017 -77.97656 36147 ft 363 kts 206°
2026-05-04 01:34 32.39155 -77.99248 36147 ft 362 kts 206°
2026-05-04 01:34 32.34292 -78.00833 36144 ft 363 kts 206°
2026-05-04 01:35 32.30209 -78.02163 36147 ft 364 kts 206°
2026-05-04 01:35 32.25316 -78.03745 36153 ft 365 kts 206°
2026-05-04 01:36 32.20414 -78.05322 36160 ft 365 kts 205°
2026-05-04 01:36 32.15505 -78.06889 36164 ft 365 kts 205°
2026-05-04 01:37 32.10605 -78.08458 36165 ft 364 kts 206°
2026-05-04 01:37 32.05711 -78.10030 36165 ft 365 kts 206°
2026-05-04 01:38 32.00816 -78.11601 36169 ft 365 kts 206°
2026-05-04 01:38 31.95919 -78.13171 36167 ft 365 kts 206°
2026-05-04 01:39 31.91018 -78.14739 36168 ft 365 kts 205°
2026-05-04 01:39 31.86150 -78.16289 36167 ft 365 kts 205°
2026-05-04 01:40 31.81249 -78.17849 36166 ft 365 kts 205°
2026-05-04 01:40 31.76345 -78.19408 36167 ft 365 kts 206°
2026-05-04 01:41 31.71409 -78.20984 36165 ft 365 kts 206°
2026-05-04 01:41 31.66540 -78.22534 36164 ft 365 kts 206°
2026-05-04 01:42 31.61640 -78.24094 36163 ft 365 kts 205°
2026-05-04 01:42 31.56737 -78.25649 36164 ft 365 kts 205°
2026-05-04 01:43 31.51835 -78.27205 36166 ft 365 kts 205°
2026-05-04 01:43 31.46936 -78.28758 36170 ft 365 kts 205°
2026-05-04 01:44 31.42061 -78.30358 36169 ft 363 kts 206°
2026-05-04 01:44 31.37208 -78.31997 36165 ft 363 kts 206°
2026-05-04 01:45 31.32355 -78.33635 36167 ft 363 kts 206°
2026-05-04 01:45 31.25075 -78.36070 36166 ft 363 kts 206°
2026-05-04 01:46 31.20228 -78.37692 36163 ft 362 kts 206°
2026-05-04 01:46 31.15381 -78.39315 36161 ft 362 kts 206°
2026-05-04 01:47 31.10532 -78.40928 36165 ft 362 kts 206°
2026-05-04 01:47 31.05683 -78.42538 36164 ft 362 kts 206°
2026-05-04 01:48 31.00834 -78.44147 36161 ft 362 kts 206°
2026-05-04 01:48 30.95981 -78.45760 36162 ft 363 kts 206°
2026-05-04 01:49 30.91127 -78.47367 36160 ft 363 kts 206°
2026-05-04 01:49 30.86268 -78.48980 36160 ft 363 kts 206°
2026-05-04 01:50 30.81406 -78.50589 36164 ft 363 kts 206°
2026-05-04 01:50 30.76585 -78.52183 36164 ft 362 kts 206°
2026-05-04 01:51 30.71734 -78.53786 36165 ft 362 kts 206°
2026-05-04 01:51 30.66884 -78.55384 36166 ft 362 kts 206°
2026-05-04 01:52 30.62031 -78.56980 36166 ft 363 kts 206°
2026-05-04 01:52 30.57172 -78.58577 36166 ft 362 kts 206°
2026-05-04 01:53 30.52324 -78.60176 36163 ft 362 kts 206°
2026-05-04 01:53 30.47473 -78.61773 36162 ft 362 kts 206°
2026-05-04 01:54 30.42616 -78.63364 36159 ft 362 kts 206°
2026-05-04 01:54 30.37771 -78.64954 36158 ft 362 kts 206°
2026-05-04 01:55 30.32923 -78.66545 36155 ft 363 kts 206°
2026-05-04 01:55 30.28065 -78.68129 36151 ft 363 kts 206°
2026-05-04 01:56 30.23207 -78.69720 36149 ft 363 kts 206°
2026-05-04 01:56 30.18348 -78.71311 36145 ft 363 kts 206°
2026-05-04 01:57 30.13494 -78.72897 36127 ft 362 kts 206°
2026-05-04 01:57 30.08636 -78.74486 36122 ft 362 kts 206°
2026-05-04 01:58 30.03780 -78.76063 36126 ft 362 kts 206°
2026-05-04 01:58 29.98928 -78.77630 36123 ft 362 kts 206°
2026-05-04 01:59 29.94080 -78.79201 36111 ft 362 kts 206°
2026-05-04 01:59 29.89225 -78.80782 36112 ft 363 kts 206°
2026-05-04 02:00 29.84364 -78.82362 36114 ft 363 kts 206°
2026-05-04 02:00 29.79503 -78.83933 36107 ft 363 kts 206°
2026-05-04 02:01 29.77024 -78.84488 36109 ft 374 kts 198°
2026-05-04 02:01 29.74437 -78.84841 36113 ft 374 kts 198°
2026-05-04 02:01 29.69264 -78.85533 36114 ft 374 kts 198°
2026-05-04 02:02 29.64084 -78.86222 36112 ft 374 kts 198°
2026-05-04 02:02 29.58916 -78.86911 36108 ft 374 kts 198°
2026-05-04 02:03 29.53750 -78.87607 36103 ft 374 kts 198°
2026-05-04 02:03 29.48572 -78.88307 36103 ft 375 kts 198°
2026-05-04 02:04 29.43389 -78.89003 36103 ft 375 kts 198°
2026-05-04 02:04 29.38200 -78.89698 36106 ft 375 kts 198°
2026-05-04 02:05 29.33009 -78.90396 36106 ft 376 kts 198°
2026-05-04 02:05 29.27811 -78.91088 36102 ft 376 kts 198°
2026-05-04 02:06 29.22610 -78.91784 36097 ft 376 kts 198°
2026-05-04 02:06 29.17402 -78.92481 36096 ft 377 kts 198°
2026-05-04 02:07 29.12186 -78.93179 36100 ft 378 kts 198°
2026-05-04 02:07 29.06961 -78.93885 36103 ft 378 kts 198°
2026-05-04 02:08 29.01731 -78.94586 36105 ft 379 kts 198°
2026-05-04 02:08 28.96529 -78.95278 36108 ft 379 kts 198°
2026-05-04 02:09 28.91261 -78.95973 36110 ft 379 kts 198°
2026-05-04 02:09 28.86049 -78.96663 36107 ft 380 kts 198°
2026-05-04 02:10 28.80799 -78.97359 36106 ft 380 kts 198°
2026-05-04 02:10 28.75541 -78.98059 36106 ft 380 kts 198°
2026-05-04 02:11 28.70283 -78.98752 36106 ft 381 kts 198°
2026-05-04 02:11 28.65016 -78.99439 36103 ft 381 kts 198°
2026-05-04 02:12 28.59749 -79.00139 36106 ft 381 kts 198°
2026-05-04 02:12 28.54486 -79.00838 36102 ft 380 kts 197°
2026-05-04 02:13 28.49234 -79.01535 36094 ft 380 kts 198°
2026-05-04 02:13 28.43975 -79.02224 36095 ft 381 kts 198°
2026-05-04 02:14 28.38716 -79.02915 36089 ft 381 kts 198°
2026-05-04 02:14 28.33513 -79.03809 36089 ft 370 kts 206°
2026-05-04 02:15 28.28654 -79.05618 36092 ft 368 kts 207°
2026-05-04 02:15 28.23790 -79.07427 36090 ft 368 kts 207°
2026-05-04 02:16 28.18921 -79.09235 36093 ft 368 kts 207°
2026-05-04 02:16 28.14053 -79.11045 36097 ft 368 kts 208°
2026-05-04 02:17 28.09185 -79.12861 36100 ft 368 kts 207°
2026-05-04 02:17 28.04313 -79.14668 36102 ft 369 kts 207°
2026-05-04 02:18 27.99437 -79.16476 36097 ft 369 kts 207°
2026-05-04 02:18 27.94557 -79.18293 36083 ft 370 kts 207°
2026-05-04 02:19 27.89648 -79.20117 36076 ft 372 kts 207°
2026-05-04 02:19 27.84717 -79.21946 36075 ft 374 kts 207°
2026-05-04 02:20 27.80599 -79.23473 36083 ft 375 kts 207°
2026-05-04 02:20 27.75633 -79.25301 36090 ft 375 kts 207°
2026-05-04 02:21 27.70668 -79.27130 36091 ft 376 kts 207°
2026-05-04 02:21 27.65697 -79.28969 36091 ft 376 kts 207°
2026-05-04 02:22 27.60721 -79.30806 36095 ft 377 kts 207°
2026-05-04 02:22 27.55742 -79.32638 36100 ft 376 kts 207°
2026-05-04 02:23 27.50727 -79.34481 36083 ft 385 kts 207°
2026-05-04 02:23 27.48170 -79.35421 35740 ft 386 kts 207°
2026-05-04 02:23 27.45625 -79.36356 35190 ft 385 kts 207°
2026-05-04 02:24 27.43055 -79.37305 34259 ft 393 kts 206°
2026-05-04 02:24 27.40455 -79.38263 33672 ft 393 kts 206°
2026-05-04 02:24 27.37872 -79.39202 33235 ft 388 kts 205°
2026-05-04 02:24 27.35320 -79.40130 32809 ft 383 kts 206°
2026-05-04 02:25 27.32797 -79.41050 32377 ft 378 kts 205°
2026-05-04 02:25 27.30311 -79.41961 31954 ft 374 kts 205°
2026-05-04 02:25 27.27851 -79.42866 31477 ft 370 kts 205°
2026-05-04 02:25 27.25421 -79.43761 31018 ft 366 kts 205°
2026-05-04 02:26 27.23013 -79.44643 30566 ft 362 kts 205°
2026-05-04 02:26 27.20628 -79.45513 30126 ft 358 kts 204°
2026-05-04 02:26 27.18272 -79.46375 29702 ft 354 kts 205°
2026-05-04 02:26 27.15940 -79.47227 29277 ft 351 kts 204°
2026-05-04 02:27 27.13622 -79.48073 28861 ft 348 kts 204°
2026-05-04 02:27 27.11329 -79.48909 28462 ft 346 kts 204°
2026-05-04 02:27 27.09052 -79.49740 28062 ft 343 kts 204°
2026-05-04 02:27 27.06791 -79.50568 27669 ft 340 kts 204°
2026-05-04 02:28 27.04553 -79.51388 27283 ft 337 kts 204°
2026-05-04 02:28 27.02335 -79.52199 26901 ft 334 kts 204°
2026-05-04 02:28 27.00133 -79.53001 26515 ft 331 kts 204°
2026-05-04 02:28 26.97955 -79.53793 26137 ft 328 kts 204°
2026-05-04 02:29 26.95797 -79.54577 25753 ft 324 kts 204°
2026-05-04 02:29 26.93660 -79.55355 25350 ft 321 kts 204°
2026-05-04 02:29 26.91545 -79.56125 24980 ft 318 kts 204°
2026-05-04 02:29 26.89446 -79.56888 24581 ft 316 kts 204°
2026-05-04 02:30 26.87363 -79.57642 24193 ft 313 kts 204°
2026-05-04 02:30 26.85298 -79.58388 23800 ft 311 kts 204°
2026-05-04 02:30 26.83248 -79.59130 23409 ft 309 kts 204°
2026-05-04 02:30 26.81209 -79.59867 23016 ft 307 kts 204°
2026-05-04 02:31 26.79186 -79.60596 22621 ft 305 kts 204°
2026-05-04 02:31 26.77169 -79.61322 22222 ft 303 kts 204°
2026-05-04 02:31 26.75165 -79.62043 21831 ft 302 kts 204°
2026-05-04 02:31 26.73170 -79.62760 21426 ft 300 kts 204°
2026-05-04 02:32 26.71189 -79.63472 21048 ft 299 kts 204°
2026-05-04 02:32 26.69219 -79.64183 20666 ft 297 kts 204°
2026-05-04 02:32 26.67255 -79.64893 20275 ft 296 kts 204°
2026-05-04 02:32 26.65298 -79.65596 19901 ft 295 kts 204°
2026-05-04 02:33 26.63348 -79.66296 19524 ft 294 kts 203°
2026-05-04 02:33 26.61405 -79.66991 19135 ft 292 kts 203°
2026-05-04 02:33 26.59472 -79.67667 18752 ft 290 kts 203°
2026-05-04 02:33 26.57562 -79.68330 18384 ft 287 kts 204°
2026-05-04 02:34 26.55640 -79.69001 17994 ft 291 kts 203°
2026-05-04 02:34 26.53705 -79.69687 17608 ft 293 kts 203°
2026-05-04 02:34 26.51803 -79.70351 17255 ft 290 kts 202°
2026-05-04 02:34 26.49853 -79.71026 16808 ft 290 kts 202°
2026-05-04 02:35 26.47931 -79.71700 16420 ft 290 kts 204°
2026-05-04 02:35 26.46134 -79.72613 16043 ft 280 kts 215°
2026-05-04 02:35 26.44620 -79.73926 15840 ft 277 kts 226°
2026-05-04 02:35 26.43265 -79.75552 15660 ft 292 kts 229°
2026-05-04 02:36 26.41870 -79.77236 15471 ft 298 kts 230°
2026-05-04 02:36 26.40469 -79.78926 15269 ft 297 kts 230°
2026-05-04 02:36 26.39077 -79.80621 15064 ft 296 kts 230°
2026-05-04 02:36 26.37710 -79.82321 14828 ft 293 kts 230°
2026-05-04 02:37 26.36355 -79.84018 14601 ft 294 kts 230°
2026-05-04 02:37 26.35018 -79.85733 14375 ft 293 kts 234°
2026-05-04 02:37 26.33870 -79.87600 14139 ft 291 kts 238°
2026-05-04 02:37 26.32770 -79.89492 13917 ft 291 kts 239°
2026-05-04 02:38 26.31679 -79.91388 13687 ft 290 kts 238°
2026-05-04 02:38 26.30596 -79.93278 13325 ft 290 kts 238°
2026-05-04 02:38 26.29524 -79.95147 12884 ft 284 kts 239°
2026-05-04 02:38 26.28453 -79.96999 12386 ft 285 kts 238°
2026-05-04 02:39 26.27392 -79.98856 11969 ft 283 kts 238°
2026-05-04 02:39 26.26328 -80.00706 11519 ft 284 kts 238°
2026-05-04 02:39 26.24985 -80.02286 11099 ft 284 kts 214°
2026-05-04 02:39 26.23123 -80.03062 10998 ft 293 kts 193°
2026-05-04 02:40 26.21087 -80.03385 11009 ft 297 kts 191°
2026-05-04 02:40 26.19052 -80.03736 11010 ft 296 kts 193°
2026-05-04 02:40 26.17026 -80.04157 11009 ft 296 kts 194°
2026-05-04 02:40 26.15005 -80.04608 11011 ft 296 kts 195°
2026-05-04 02:41 26.13001 -80.05066 11006 ft 295 kts 195°
2026-05-04 02:41 26.10979 -80.05517 11001 ft 296 kts 194°
2026-05-04 02:41 26.08959 -80.05957 11001 ft 296 kts 194°
2026-05-04 02:41 26.06938 -80.06395 11000 ft 296 kts 194°
2026-05-04 02:42 26.04922 -80.06871 11001 ft 296 kts 196°
2026-05-04 02:42 26.02919 -80.07388 11002 ft 296 kts 197°
2026-05-04 02:42 26.00919 -80.07922 10999 ft 296 kts 197°
2026-05-04 02:42 25.98920 -80.08461 10990 ft 296 kts 197°
2026-05-04 02:43 25.96919 -80.08996 10772 ft 294 kts 196°
2026-05-04 02:43 25.94944 -80.09515 10527 ft 289 kts 196°
2026-05-04 02:43 25.93059 -80.10186 10237 ft 282 kts 208°
2026-05-04 02:43 25.91435 -80.11339 9884 ft 275 kts 222°
2026-05-04 02:44 25.90116 -80.12855 9547 ft 271 kts 229°
2026-05-04 02:44 25.88940 -80.14460 9196 ft 266 kts 239°
2026-05-04 02:44 25.88165 -80.16307 8848 ft 264 kts 253°
2026-05-04 02:44 25.87864 -80.18313 8488 ft 264 kts 268°
2026-05-04 02:45 25.87831 -80.20350 8123 ft 264 kts 268°
2026-05-04 02:45 25.87772 -80.22370 7779 ft 261 kts 267°
2026-05-04 02:45 25.87700 -80.24385 7442 ft 260 kts 267°
2026-05-04 02:45 25.87627 -80.26408 7096 ft 263 kts 268°
2026-05-04 02:46 25.87558 -80.28424 6755 ft 261 kts 268°
2026-05-04 02:46 25.87494 -80.30424 6393 ft 258 kts 268°
2026-05-04 02:46 25.87453 -80.32417 6026 ft 259 kts 268°
2026-05-04 02:46 25.87400 -80.34379 5690 ft 248 kts 267°
2026-05-04 02:47 25.87327 -80.36234 5391 ft 233 kts 266°
2026-05-04 02:47 25.87241 -80.37997 5099 ft 227 kts 266°
2026-05-04 02:47 25.87137 -80.39735 4818 ft 224 kts 266°
2026-05-04 02:47 25.87027 -80.41463 4476 ft 224 kts 266°
2026-05-04 02:48 25.86915 -80.43193 4156 ft 224 kts 265°
2026-05-04 02:48 25.86802 -80.44908 3998 ft 224 kts 265°
2026-05-04 02:48 25.86688 -80.46640 4011 ft 226 kts 265°
2026-05-04 02:48 25.86572 -80.48380 4011 ft 226 kts 265°
2026-05-04 02:49 25.86458 -80.50118 4007 ft 225 kts 265°
2026-05-04 02:49 25.86343 -80.51850 4013 ft 225 kts 265°
2026-05-04 02:49 25.86229 -80.53585 4013 ft 226 kts 266°
2026-05-04 02:49 25.86116 -80.55300 4013 ft 226 kts 265°
2026-05-04 02:50 25.85891 -80.57012 4001 ft 225 kts 248°
2026-05-04 02:50 25.84955 -80.58403 3931 ft 224 kts 216°
2026-05-04 02:50 25.83535 -80.58993 3601 ft 224 kts 183°
2026-05-04 02:50 25.81988 -80.58754 3242 ft 224 kts 154°
2026-05-04 02:51 25.80846 -80.57643 3014 ft 220 kts 121°
2026-05-04 02:51 25.80130 -80.56117 2999 ft 225 kts 114°
2026-05-04 02:51 25.79489 -80.54527 3001 ft 226 kts 113°
2026-05-04 02:51 25.79101 -80.52863 2995 ft 224 kts 88°
2026-05-04 02:52 25.79168 -80.51135 3001 ft 225 kts 86°
2026-05-04 02:52 25.79253 -80.49399 3000 ft 225 kts 86°
2026-05-04 02:52 25.79327 -80.47694 3001 ft 216 kts 87°
2026-05-04 02:52 25.79397 -80.46048 2782 ft 211 kts 87°
2026-05-04 02:53 25.79465 -80.44459 2528 ft 207 kts 86°
2026-05-04 02:53 25.79531 -80.42912 2282 ft 190 kts 86°
2026-05-04 02:53 25.79589 -80.41534 2046 ft 168 kts 86°
2026-05-04 02:53 25.79641 -80.40305 1828 ft 152 kts 87°
2026-05-04 02:54 25.79689 -80.39161 1625 ft 145 kts 88°
2026-05-04 02:54 25.79736 -80.38053 1430 ft 143 kts 86°
2026-05-04 02:54 25.79783 -80.36960 1244 ft 142 kts 86°
2026-05-04 02:54 25.79828 -80.35890 1059 ft 141 kts 86°
2026-05-04 02:55 25.79919 -80.33745 684 ft 140 kts 86°
2026-05-04 02:55 25.79964 -80.32672 504 ft 139 kts 86°
2026-05-04 02:55 25.80009 -80.31606 316 ft 139 kts 86°
2026-05-04 02:56 25.80055 -80.30540 150 ft 139 kts 87°
2026-05-04 02:56 25.80098 -80.29486 19 ft 130 kts 86°
2026-05-04 02:56 25.80130 -80.28713 20 ft 60 kts 87°
2026-05-04 02:56 25.80135 -80.28336 17 ft 32 kts 97°
2026-05-04 02:57 25.80076 -80.28194 14 ft 11 kts 141°
2026-05-04 02:57 25.80062 -80.28186 14 ft 0 kts 153°
2026-05-04 02:57 25.80059 -80.28184 14 ft 1 kts 153°
2026-05-04 02:58 25.80046 -80.28176 16 ft 4 kts 152°
2026-05-04 02:58 25.80014 -80.28158 15 ft 6 kts 154°
2026-05-04 02:58 25.79963 -80.28144 14 ft 9 kts 172°
2026-05-04 02:58 25.79903 -80.28117 16 ft 10 kts 122°
2026-05-04 02:59 25.79894 -80.28032 14 ft 12 kts 103°
2026-05-04 02:59 25.79879 -80.27936 15 ft 13 kts 89°
2026-05-04 02:59 25.79882 -80.27850 14 ft 8 kts 86°
2026-05-04 02:59 25.79885 -80.27782 15 ft 6 kts 97°
2026-05-04 03:00 25.79864 -80.27777 15 ft 4 kts 172°
2026-05-04 03:00 25.79830 -80.27772 15 ft 6 kts 174°
2026-05-04 03:00 25.79805 -80.27770 15 ft 5 kts 179°
2026-05-04 03:00 25.79787 -80.27769 16 ft 0 kts 177°
2026-05-04 03:01 25.79786 -80.27769 16 ft 0 kts 177°